CW2674 Weather Reports


Display with metric or nautical units.
time (UTC)temp
F
wind
direction
speed
MPH
gust
MPH
rain 1hr
in
rain 24hr
in
rain mn
in
humidity
%
barometer
mb
20260508181404 92 238 3.0 7.0 0.00 0.00 0.00 18 1011.7
20260508171405 87 180 1.0 3.0 0.00 0.00 0.00 22 1012.2
20260508170407 86 180 1.0 6.0 0.00 0.00 0.00 22 1012.3
20260508164404 85 201 2.0 5.0 0.00 0.00 0.00 23 1012.3
20260508163405 84 202 2.0 6.0 0.00 0.00 0.00 23 1012.4
20260508161406 83 188 3.0 5.0 0.00 0.00 0.00 25 1012.5
20260508154404 80 190 1.0 3.0 0.00 0.00 0.00 27 1012.6
20260508153405 79 190 0.0 3.0 0.00 0.00 0.00 27 1012.7
20260508151404 78 189 1.0 3.0 0.00 0.00 0.00 28 1012.6
20260508150405 77 190 2.0 6.0 0.00 0.00 0.00 30 1012.6
20260508144404 75 352 0.0 2.0 0.00 0.00 0.00 32 1012.5
20260508143405 74 352 1.0 3.0 0.00 0.00 0.00 32 1012.4
20260508140405 69 352 1.0 3.0 0.00 0.00 0.00 37 1012.3
20260508134405 66 352 0.0 0.0 0.00 0.00 0.00 40 1012.1
20260508133404 64 352 0.0 0.0 0.00 0.00 0.00 40 1012.0
20260508131404 63 352 0.0 0.0 0.00 0.00 0.00 38 1011.8
20260508130404 64 352 0.0 0.0 0.00 0.00 0.00 36 1011.7
20260508124405 64 352 0.0 0.0 0.00 0.00 0.00 34 1011.3
20260508123404 64 352 0.0 0.0 0.00 0.00 0.00 33 1011.1
20260508121404 65 352 0.0 0.0 0.00 0.00 0.00 29 1010.8
20260508120406 65 352 1.0 3.0 0.00 0.00 0.00 28 1010.7
20260508114404 67 352 1.0 3.0 0.00 0.00 0.00 26 1010.6
20260508111405 69 352 2.0 3.0 0.00 0.00 0.00 30 1010.3
20260508071405 76 352 0.0 2.0 0.00 0.00 0.00 23 1009.8
20260508070405 77 352 1.0 5.0 0.00 0.00 0.00 22 1009.8
20260508063404 78 227 2.0 3.0 0.00 0.00 0.00 21 1009.7
20260508061404 79 227 2.0 3.0 0.00 0.00 0.00 21 1009.7
20260508060405 80 227 0.0 3.0 0.00 0.00 0.00 20 1009.7
20260508054405 82 226 2.0 3.0 0.00 0.00 0.00 18 1009.7
20260508053404 82 227 2.0 6.0 0.00 0.00 0.00 17 1009.7
20260508051404 83 225 3.0 7.0 0.00 0.00 0.00 15 1009.7
20260508044405 82 231 3.0 7.0 0.00 0.00 0.00 15 1009.6
20260508043404 82 238 0.0 3.0 0.00 0.00 0.00 16 1009.5
20260508041405 82 238 1.0 2.0 0.00 0.00 0.00 16 1009.3
20260508034404 85 238 2.0 5.0 0.00 0.00 0.00 14 1009.0
20260508033406 86 238 3.0 8.0 0.00 0.00 0.00 14 1008.9
20260508031404 86 239 3.0 5.0 0.00 0.00 0.00 14 1008.6
20260508024406 88 225 3.0 9.0 0.00 0.00 0.00 13 1008.4
20260508023405 88 208 4.0 9.0 0.00 0.00 0.00 13 1008.3
20260508021405 88 231 3.0 12.0 0.00 0.00 0.00 15 1008.0
20260507223405 100 286 7.0 14.0 0.00 0.00 0.00 9 1008.2
20260507221404 99 269 3.0 8.0 0.00 0.00 0.00 10 1008.4
20260507220405 98 248 2.0 12.0 0.00 0.00 0.00 10 1008.6
20260507214405 98 310 5.0 8.0 0.00 0.00 0.00 8 1008.8
20260507213404 98 315 6.0 12.0 0.00 0.00 0.00 9 1009.0
20260507211404 99 232 3.0 13.0 0.00 0.00 0.00 10 1009.3
20260507210404 99 201 5.0 14.0 0.00 0.00 0.00 9 1009.4
20260507204404 99 124 3.0 9.0 0.00 0.00 0.00 10 1009.7
20260507203405 99 134 5.0 9.0 0.00 0.00 0.00 10 1009.8
20260507201404 98 94 1.0 10.0 0.00 0.00 0.00 9 1010.0
20260507200404 98 106 6.0 10.0 0.00 0.00 0.00 11 1010.2
20260507194404 98 166 5.0 10.0 0.00 0.00 0.00 10 1010.5
20260507193403 97 186 6.0 13.0 0.00 0.00 0.00 11 1010.9
20260507184405 92 177 2.0 7.0 0.00 0.00 0.00 13 1011.8
20260507183405 93 150 2.0 9.0 0.00 0.00 0.00 13 1012.2